SHT21A EGLL-EGJB

Flight info

Callsign SHT21A
Flight time N/A
Altitude 23000
Route GASGU2J GASGU N866 SAM/N0388F220 N63 LELNA LELNA1V
Aircraft A319/M-SDE3FGHIRWY/LB1

Departure

Time N/A
Airport London Heathrow Airport (EGLL)

Arrival

Time 2026-04-23 20:10
Airport Guernsey Airport (EGJB)
Time Latitude Longitude Altitude Speed Heading
2026-04-23 19:45 51.05702 -1.18973 23361 ft 388 kts 221°
2026-04-23 19:46 51.03754 -1.21951 23358 ft 388 kts 221°
2026-04-23 19:46 51.01806 -1.24923 23356 ft 388 kts 221°
2026-04-23 19:46 50.99858 -1.27885 23356 ft 388 kts 221°
2026-04-23 19:46 50.97908 -1.30850 23355 ft 388 kts 221°
2026-04-23 19:47 50.95904 -1.33707 23353 ft 386 kts 214°
2026-04-23 19:47 50.93650 -1.36004 23354 ft 383 kts 205°
2026-04-23 19:47 50.91279 -1.37896 23352 ft 382 kts 204°
2026-04-23 19:47 50.88900 -1.39789 23353 ft 382 kts 204°
2026-04-23 19:48 50.86534 -1.41674 23354 ft 384 kts 204°
2026-04-23 19:48 50.84104 -1.43608 23355 ft 393 kts 204°
2026-04-23 19:48 50.81616 -1.45588 23355 ft 395 kts 205°
2026-04-23 19:48 50.79189 -1.47519 23355 ft 396 kts 204°
2026-04-23 19:49 50.76691 -1.49505 23354 ft 397 kts 205°
2026-04-23 19:49 50.74223 -1.51466 23340 ft 396 kts 205°
2026-04-23 19:49 50.71757 -1.53420 23338 ft 396 kts 205°
2026-04-23 19:49 50.69296 -1.55370 23339 ft 396 kts 205°
2026-04-23 19:50 50.66829 -1.57325 23334 ft 397 kts 206°
2026-04-23 19:50 50.64365 -1.59272 23335 ft 396 kts 204°
2026-04-23 19:50 50.61903 -1.61214 23344 ft 399 kts 205°
2026-04-23 19:50 50.59405 -1.63177 23345 ft 401 kts 206°
2026-04-23 19:51 50.56940 -1.65111 23339 ft 401 kts 206°
2026-04-23 19:51 50.54440 -1.67071 23339 ft 401 kts 205°
2026-04-23 19:51 50.51940 -1.69035 23337 ft 403 kts 206°
2026-04-23 19:51 50.49437 -1.71002 23334 ft 401 kts 206°
2026-04-23 19:52 50.46915 -1.72979 23330 ft 401 kts 205°
2026-04-23 19:52 50.44414 -1.74937 23332 ft 401 kts 205°
2026-04-23 19:52 50.41912 -1.76895 23332 ft 402 kts 206°
2026-04-23 19:52 50.39416 -1.78843 23328 ft 401 kts 207°
2026-04-23 19:53 50.36894 -1.80809 23328 ft 408 kts 207°
2026-04-23 19:53 50.34345 -1.82791 23328 ft 408 kts 207°
2026-04-23 19:53 50.31802 -1.84769 23312 ft 409 kts 208°
2026-04-23 19:53 50.29228 -1.86770 23326 ft 414 kts 208°
2026-04-23 19:54 50.26639 -1.88780 23326 ft 416 kts 208°
2026-04-23 19:54 50.24052 -1.90784 23324 ft 416 kts 208°
2026-04-23 19:54 50.21450 -1.92794 23317 ft 416 kts 208°
2026-04-23 19:54 50.18852 -1.94797 23317 ft 417 kts 208°
2026-04-23 19:55 50.16253 -1.96802 23315 ft 416 kts 208°
2026-04-23 19:55 50.13662 -1.98800 23318 ft 415 kts 208°
2026-04-23 19:55 50.11074 -2.00790 23317 ft 416 kts 208°
2026-04-23 19:55 50.08481 -2.02782 23306 ft 415 kts 208°
2026-04-23 19:56 50.05892 -2.04770 23304 ft 417 kts 208°
2026-04-23 19:56 50.03277 -2.06778 23310 ft 422 kts 209°
2026-04-23 19:56 50.00666 -2.08795 23016 ft 421 kts 210°
2026-04-23 19:56 49.98207 -2.11271 22154 ft 422 kts 220°
2026-04-23 19:57 49.96089 -2.14405 21414 ft 420 kts 231°
2026-04-23 19:57 49.94167 -2.17803 20763 ft 417 kts 230°
2026-04-23 19:57 49.92257 -2.21148 20263 ft 410 kts 229°
2026-04-23 19:57 49.90367 -2.24443 19634 ft 408 kts 228°
2026-04-23 19:58 49.88485 -2.27714 19048 ft 405 kts 228°
2026-04-23 19:58 49.86610 -2.30969 18375 ft 404 kts 229°
2026-04-23 19:58 49.84736 -2.34218 17565 ft 404 kts 228°
2026-04-23 19:58 49.82873 -2.37453 16985 ft 399 kts 227°
2026-04-23 19:59 49.81048 -2.40629 16460 ft 391 kts 227°
2026-04-23 19:59 49.79248 -2.43759 15864 ft 387 kts 227°
2026-04-23 19:59 49.77471 -2.46839 15347 ft 381 kts 226°
2026-04-23 19:59 49.75715 -2.49871 14819 ft 375 kts 226°
2026-04-23 20:00 49.73985 -2.52855 14303 ft 370 kts 225°
2026-04-23 20:00 49.72182 -2.55629 13740 ft 363 kts 217°
2026-04-23 20:00 49.70059 -2.57744 12768 ft 366 kts 207°
2026-04-23 20:00 49.67877 -2.59726 12150 ft 361 kts 206°
2026-04-23 20:01 49.65728 -2.61676 11740 ft 351 kts 206°
2026-04-23 20:01 49.63675 -2.63542 11553 ft 336 kts 207°
2026-04-23 20:01 49.57097 -2.69500 10004 ft 323 kts 205°
2026-04-23 20:01 49.49480 -2.76355 8056 ft 312 kts 205°
2026-04-23 20:02 49.46301 -2.79963 7179 ft 319 kts 233°
2026-04-23 20:02 49.45558 -2.83161 6732 ft 323 kts 264°
2026-04-23 20:02 49.45922 -2.86531 6244 ft 323 kts 294°
2026-04-23 20:02 49.47202 -2.89319 5766 ft 319 kts 315°
2026-04-23 20:03 49.48584 -2.92026 5282 ft 319 kts 296°
2026-04-23 20:03 49.49021 -2.95305 4805 ft 314 kts 264°
2026-04-23 20:03 49.48363 -2.98360 4332 ft 300 kts 232°
2026-04-23 20:03 49.46852 -3.00345 3846 ft 278 kts 198°
2026-04-23 20:04 49.45021 -3.00674 3365 ft 258 kts 162°
2026-04-23 20:04 49.43605 -2.99319 3256 ft 232 kts 126°
2026-04-23 20:04 49.42684 -2.96505 3180 ft 209 kts 108°
2026-04-23 20:04 49.42530 -2.94372 3132 ft 194 kts 93°
2026-04-23 20:05 49.42548 -2.93011 3099 ft 184 kts 92°
2026-04-23 20:05 49.42616 -2.90456 3047 ft 179 kts 91°
2026-04-23 20:05 49.42672 -2.88550 3008 ft 178 kts 91°
2026-04-23 20:05 49.42729 -2.86651 2972 ft 178 kts 91°
2026-04-23 20:06 49.42864 -2.82105 2880 ft 176 kts 92°
2026-04-23 20:06 49.43007 -2.77440 2977 ft 137 kts 93°
2026-04-23 20:06 49.43047 -2.75979 2620 ft 135 kts 93°
2026-04-23 20:06 49.43088 -2.74576 2273 ft 128 kts 92°
2026-04-23 20:07 49.43126 -2.73256 1984 ft 120 kts 92°
2026-04-23 20:07 49.43162 -2.71992 1758 ft 117 kts 91°
2026-04-23 20:07 49.43197 -2.70753 1570 ft 115 kts 91°
2026-04-23 20:07 49.43232 -2.69524 1399 ft 115 kts 90°
2026-04-23 20:08 49.43267 -2.68298 1235 ft 116 kts 89°
2026-04-23 20:08 49.43303 -2.67048 1064 ft 118 kts 87°
2026-04-23 20:08 49.43338 -2.65806 906 ft 115 kts 87°
2026-04-23 20:08 49.43374 -2.64545 728 ft 118 kts 86°
2026-04-23 20:09 49.43411 -2.63290 585 ft 116 kts 84°
2026-04-23 20:09 49.43443 -2.62062 407 ft 116 kts 83°
2026-04-23 20:09 49.43468 -2.61237 330 ft 116 kts 83°
2026-04-23 20:09 49.43496 -2.60206 317 ft 60 kts 87°
2026-04-23 20:10 49.43491 -2.59882 321 ft 18 kts 131°
2026-04-23 20:10 49.43408 -2.59860 324 ft 7 kts 178°
2026-04-23 20:10 49.43374 -2.59858 324 ft 0 kts 177°
2026-04-23 20:11 49.43373 -2.59858 324 ft 0 kts 177°
2026-04-23 20:11 49.43369 -2.59857 324 ft 3 kts 175°
2026-04-23 20:12 49.43348 -2.59800 325 ft 11 kts 92°
2026-04-23 20:12 49.43348 -2.59694 325 ft 7 kts 144°
2026-04-23 20:12 49.43288 -2.59688 326 ft 10 kts 177°
2026-04-23 20:12 49.43262 -2.59686 326 ft 0 kts 177°